• Join FlightAware (Why Join?)
  • Login
  • US Flag GB Flag 
03:29 EDT


 

Airport Tracker/Info


-or-


 

Live Flight TrackerFlight Track Log ✈ FLG3729 ✈ 27-Apr-2013 ✈ KALB - KDTW

Flight Track Log - Related Links

Times and Time Zones

All times are in EDT time to prevent confusion due to time zone crossing. See the FLG3729 flight status page for this flight to view local times or setup timezone preferences in your user account.

Time Position Orientation Groundspeed Altitude Reporting Facility
EDT Latitude Longitude Course Direction KTS MPH feet Rate Location/Type
05:57 42.7611 -73.8061 283° West 139 160 1,400  Level Boston Center
05:59 42.8436 -73.8758 328° Northwest 237 273 6,100 2,820 Climbing Boston Center
06:00 42.8090 -74.1624 281° West  Level FlightAware Approximate
06:00 42.8844 -73.9503 307° West 237 273 9,300  Level Boston Center
06:01 42.8268 -74.2875 281° West  Level FlightAware Approximate
06:01 42.9311 -74.0367 306° West 276 318 11,100  Level Boston Center
06:02 42.8465 -74.4122 283° West  Level FlightAware Approximate
06:02 42.9650 -74.1453 293° West 293 337 12,600  Level Boston Center
06:03 42.9756 -74.2733 276° West 332 382 13,700 960 Climbing Boston Center
06:04 42.9897 -74.4100 278° West 360 414 14,600 960 Climbing Boston Center
06:05 43.0039 -74.5525 278° West 376 433 15,700 960 Climbing Boston Center
06:06 43.0181 -74.6919 278° West 376 433 16,600 900 Climbing Boston Center
06:07 43.0300 -74.8147 278° West 376 433 17,500 660 Climbing Boston Center
06:08 43.0458 -74.9544 279° West 371 427 18,000 720 Climbing Boston Center
06:09 43.0592 -75.0972 277° West 371 427 19,000 960 Climbing Boston Center
06:10 43.0728 -75.2342 278° West 371 427 20,000 960 Climbing Boston Center
06:11 43.0858 -75.3769 277° West 371 427 21,000 960 Climbing Boston Center
06:12 43.1006 -75.5256 278° West 383 441 22,000 960 Climbing Boston Center
06:13 43.1131 -75.6742 277° West 394 453 23,000 1,020 Climbing Boston Center
06:15 43.1431 -76.0072 277° West 400 460 25,200 1,020 Climbing Cleveland Center
06:16 43.1572 -76.1572 277° West 406 467 26,300 960 Climbing Cleveland Center
06:17 43.1525 -76.3083 268° West 401 461 27,200 780 Climbing Cleveland Center
06:18 43.1392 -76.4603 263° West 406 467 27,900 600 Climbing Cleveland Center
06:19 43.1278 -76.6144 264° West 406 467 28,500 540 Climbing Cleveland Center
06:20 43.1122 -76.7692 262° West 411 473 29,000 480 Climbing Cleveland Center
06:21 43.0981 -76.9122 262° West 416 479 29,500 480 Climbing Cleveland Center
06:22 43.0842 -77.0694 263° West 416 479 30,000 240 Climbing Cleveland Center
06:23 43.0700 -77.2267 263° West 416 479 30,000  Level Cleveland Center
06:24 43.0539 -77.3867 262° West 422 486 30,000  Level Cleveland Center
06:25 43.0394 -77.5494 263° West 429 494 30,000  Level Cleveland Center
06:26 43.0247 -77.7119 263° West 434 499 30,000  Level Cleveland Center
06:27 43.0081 -77.8775 262° West 434 499 30,000  Level Cleveland Center
06:28 42.9889 -78.0458 261° West 441 507 30,000  Level Cleveland Center
06:29 42.9672 -78.2083 260° West 446 513 30,000  Level Cleveland Center
06:30 42.9478 -78.3736 261° West 446 513 30,000  Level Cleveland Center
06:31 42.9278 -78.5417 261° West 452 520 30,000  Level Cleveland Center
06:32 42.9056 -78.7125 260° West 452 520 30,000  Level Cleveland Center
06:33 42.8853 -78.8775 261° West 452 520 30,000  Level Cleveland Center
06:34 42.8628 -79.0453 260° West 452 520 30,000  Level Cleveland Center
06:35 42.8378 -79.2128 259° West 447 514 30,000  Level Cleveland Center
06:36 42.8167 -79.3803 260° West 447 514 30,000  Level Cleveland Center
06:37 42.7953 -79.5447 260° West 447 514 30,000  Level Cleveland Center
06:38 42.7736 -79.7119 260° West 447 514 30,000  Level Cleveland Center
06:39 42.7519 -79.8792 260° West 447 514 30,000  Level Cleveland Center
06:40 42.7403 -80.0631 265° West 454 522 30,000  Level Cleveland Center
06:41 42.7347 -80.2300 267° West 449 517 30,000  Level Cleveland Center
06:42 42.7289 -80.3967 267° West 443 510 30,000  Level Cleveland Center
06:43 42.7208 -80.5633 266° West 438 504 30,000 -360 Level Cleveland Center
06:44 42.7122 -80.7272 266° West 439 505 29,300 -1,140 Descending Cleveland Center
06:45 42.7058 -80.8911 267° West 439 505 27,800 -1,500 Descending Cleveland Center
06:46 42.6886 -81.0492 262° West 439 505 26,400 -1,440 Descending Cleveland Center
06:47 42.6711 -81.2100 262° West 432 497 25,000 -1,200 Descending Cleveland Center
06:48 42.6536 -81.3511 260° West 427 491 24,000 -900 Descending Cleveland Center
06:49 42.6358 -81.5089 261° West 427 491 23,300 -1,320 Descending Cleveland Center
06:50 42.6156 -81.6694 260° West 432 497 21,400 -1,920 Descending Cleveland Center
06:51 42.5931 -81.8439 260° West 432 497 19,500 -1,680 Descending Cleveland Center
06:52 42.5744 -81.9986 261° West 432 497 18,100 -1,620 Descending Cleveland Center
06:53 42.5581 -82.1447 261° West 416 479 16,300 -1,860 Descending Cleveland Center
06:54 42.5458 -82.2600 262° West 384 442 14,800 -1,920 Descending Cleveland Center
06:55 42.5294 -82.3919 260° West 376 433 13,100 -1,800 Descending Cleveland Center
06:55 42.5225 -82.4256 254° West 388 447 12,700 -1,140 Descending Cleveland Center
06:56 42.5125 -82.5294 263° West 373 429 12,000 -720 Descending Cleveland Center
06:56 42.5014 -82.5631 246° West 382 440 12,000 -240 Level Cleveland Center
06:57 42.4708 -82.6550 246° West 360 414 11,800 -420 Descending Cleveland Center
06:57 42.4597 -82.6828 242° Southwest 368 423 11,600 -1,020 Descending Cleveland Center
06:58 42.4333 -82.7578 245° Southwest 279 321 10,800 -1,020 Descending Cleveland Center
06:58 42.4244 -82.7856 247° West 337 388 10,600 -1,680 Descending Cleveland Center
06:59 42.4231 -82.8558 268° West 261 300 9,100 -1,800 Descending Cleveland Center
07:00 42.4167 -82.9767 266° West 272 313 7,000 -1,500 Descending Cleveland Center
07:01 42.4400 -83.0506 293° West 236 272 6,000 -540 Descending Cleveland Center
07:02 42.4569 -83.1331 286° West 234 269 6,000 -300 Level Cleveland Center
07:03 42.4286 -83.1853 234° Southwest 186 214 5,400 -900 Descending Cleveland Center
07:04 42.3778 -83.2197 207° Southwest 170 196 4,200 -1,020 Descending Cleveland Center
07:05 42.3417 -83.2492 211° Southwest 178 205 3,500 -900 Descending Cleveland Center
07:06 42.3014 -83.2756 206° Southwest 159 183 2,600 -900 Descending Cleveland Center